{"data":{"norad_id":42962,"intl_designator":"2017-061H","name":"IRIDIUM 136","alt_names":[],"object_type":"PAYLOAD","status":"ACTIVE","operator":null,"country":"US","launch_date":"2017-10-09","launch_site_code":"AFWTR","launch_vehicle":null,"mission":null,"orbit_class":"UNKNOWN","rcs_meters":null,"size_class":null,"mass_kg":null,"dimensions":null,"purposes":["comms"],"wikipedia_slug":null,"has_3d_model":false,"image_url":null,"decayed_at":null,"tle_current":{"epoch":"2026-09-19T22:18:22.673376Z","epoch_age_seconds":64826,"freshness":"FRESH","line1":"1 42962U 17061H   26262.92942909  .00000063  00000+0  15256-4 0  9991","line2":"2 42962  86.4024 345.6710 0002182  95.2325 264.9119 14.34218101468414","mean_motion":14.34218101,"eccentricity":0.0002182,"inclination_deg":86.4024,"raan_deg":345.671,"arg_perigee_deg":95.2325,"mean_anomaly_deg":264.9119,"bstar":1.5256e-5,"rev_number":46841,"period_min":100.4031394525,"perigee_km":776.10459063575,"apogee_km":779.22738305921,"semimajor_km":7155.8029868475,"source":"CELESTRAK","updated_at":"2026-09-20T09:00:36.325547Z"}}}